Regional Weather Roundup
Issued by NWS Kansas City/Pleasant Hill, MO

Home | Current Version | Previous Version | Text Only | Print | Product List | Glossary On
Versions: 1 2 3 4 5 6 7 8 9 10 11 12 13 14 15 16 17 18 19 20 21 22 23 24 25 26 27 28 29 30 31 32 33 34 35 36 37 38 39 40 41 42 43 44 45 46 47 48 49 50
000
ASUS43 KEAX 262010
RWREAX

WEATHER ROUNDUP FOR EASTERN KANSAS AND NORTHWEST MISSOURI
NATIONAL WEATHER SERVICE KANSAS CITY/PLEASANT HILL MO
200 PM CST THU FEB 26 2015

KSZ040-057-103>105-MOZ028-029-037-043-262100-
...KANSAS CITY METROPOLITAN AREA...

CITY           SKY/WX    TMP DP  RH WIND       PRES   REMARKS
K.C. INTL      MOSUNNY   20   2  45 N16G24    30.42R WCI   6
K.C. DOWNTOWN  SUNNY     22   0  38 N13       30.43R WCI  10
LEES SUMMIT    MOSUNNY   21   2  43 N13       30.40F WCI   9
OLATHE - IXD   SUNNY     20   1  43 NW15G22   30.42S WCI   6
OLATHE - OJC   SUNNY     20   0  41 N10G21    30.40R WCI   9
LAWRENCE       SUNNY     21   0  39 N22G28    30.45S WCI   5

$$

MOZ001>008-011>017-020>025-030>033-038>040-044>046-053-054-262100-
...NORTHERN AND CENTRAL MISSOURI...

CITY           SKY/WX    TMP DP  RH WIND       PRES   REMARKS
ST. JOSEPH     MOSUNNY   17   0  47 N15G24    30.48R WCI   2
MOSBY          PTCLDY    19   3  49 NW10G23   30.44R WCI   8
WARRENSBURG    MOSUNNY   23   3  42 N13G20    30.40S WCI  11
WHITEMAN AFB   SUNNY     21   1  42 N16       30.37S WCI   7
CLINTON        SUNNY     27   3  36 N17G25    30.39S WCI  14
SEDALIA        SUNNY     22   5  48 N17       30.38S WCI   8
WARSAW         NOT AVBL
MARSHALL       SUNNY     21   5  49 NW16G23   30.40S WCI   7
CHILLICOTHE      N/A     17   1  49 N17G24    30.43F WCI   1
MOBERLY        SUNNY     21   3  45 N14       30.36S WCI   8
KIRKSVILLE     SUNNY     16   1  51 N15G25    30.38R WCI   1

$$

MOZ041-047>049-056>058-063>065-088>090-097-262100-
...EASTERN AND SOUTHERN MISSOURI...

CITY           SKY/WX    TMP DP  RH WIND       PRES   REMARKS
ST. LOUIS INTL LGT SNOW  23  15  71 NW13      30.28R WCI  11
SPIRIT OF STL  FLURRIES  24  13  62 N15       30.29R WCI  11
COLUMBIA       CLOUDY    22   8  55 NW15G22   30.32R WCI   9
JEFFERSON CITY CLOUDY    23   5  46 N10G20    30.35R WCI  12
MEXICO         SUNNY     21  10  63 NW18      30.33R WCI   6
HANNIBAL       SUNNY     19   0  42 N17       30.35R WCI   4
ROLLA          CLOUDY    20  11  68 NW15      30.26R WCI   6
OSAGE BEACH    MOSUNNY   25   9  50 N12G23    30.32S WCI  14
SPRINGFIELD    SUNNY     26   8  46 NW17G25   30.28S WCI  13
BRANSON        CLOUDY    25  10  54 NW18G28   30.27F WCI  11
NEVADA         SUNNY     25   1  36 N15G21    30.39S WCI  12
JOPLIN         SUNNY     26   3  37 N14G25    30.36S WCI  14
WEST PLAINS    CLOUDY    24  12  60 NW12G20   30.25R WCI  13

$$

IAZ060-094-KSZ022-034>040-054-083-096-NEZ052-066-093-262100-
...KANSAS...SOUTHEAST NEBRASKA AND IOWA...

CITY           SKY/WX    TMP DP  RH WIND       PRES   REMARKS
TOPEKA         SUNNY     21   0  39 NW13G22   30.46F WCI   9
MANHATTAN      SUNNY     20   0  41 N15G21    30.48F WCI   6
EMPORIA        SUNNY     23   1  38 N16G24    30.41F WCI  10
CHANUTE        SUNNY     26   4  38 N17       30.39F WCI  13
WICHITA        MOSUNNY   25  -3  29 N15G24    30.42F WCI  13
OMAHA          PTSUNNY   10   1  67 N21       30.52S WCI  -9
LINCOLN        CLOUDY    15  -1  49 N20       30.51S WCI  -2
FALLS CITY     PTSUNNY   17  -2  43 N17G25    30.48S WCI   1
LAMONI         SUNNY     10  -3  55 N16G24    30.42R WCI  -7
DES MOINES     MOSUNNY   10  -2  58 NW17G24   30.45S WCI  -8

$$



USA.gov is the U.S. government's official web portal to all federal, state and local government web resources and services.